www.pogodaiklimat.ru

Погода и климат >> Архив погоды >> Франция >> Ле-Бурже


ПОГОДА в Ле-Бурже

  • Прогноз погоды в Ле-Бурже
  • Монитор погоды в Ле-Бурже

АРХИВ ПОГОДЫ в Ле-Бурже

Время (UTC), дата Ветер
(напр.,м/с)
 
Видим.   Явления Облачность Т
(С)
Тd
(С)
f
(%)
Тe
(С)
Тes
(С)
Комфортность P
(гПа)
Po
(гПа)
Тmin
(С)
Tmax
(С)
R
(мм)
R24
(мм)
S
(см)
01 13.09 СЗ 1-1
{1}
45 км н/о +17.1 +14.6 85 +19 +19 1032.0 1026.1
02 13.09 штиль 0-1
{1}
30 км н/о +15.5 +13.5 88 +15 +15 1032.0 1026.1
03 13.09 С 1-1
{1}
20 км н/о +14.5 +12.7 89 +16 +16 1032.1 1026.2 0
04 13.09 С 1-1
{1}
20 км 8/8 1140 м
[]
+14.3 +13.2 93 +15 +15 1032.4 1026.4
05 13.09 С 1-1
{1}
18 км 10/10 660 м
[]
+14.8 +13.5 92 +16 +16 1032.6 1026.7
06 13.09 С 1
{3}
29 км 10/10 300 м
[]
+15.6 +14.0 90 +16 +16 1032.9 1027.0 +14.0 +22.5 0
07 13.09 СЗ 1-2
{3}
19 км 10/10 400 м
[]
+17.3 +14.6 84 +18 +18 1033.3 1027.4
08 13.09 СЗ 1-2
{2}
28 км 10/10 480 м
[]
+17.8 +14.5 81 +19 +19 1033.8 1027.9
09 13.09 СЗ 2-2
{2}
35 км 10/10 300 м
[]
+17.9 +14.2 79 +19 +19 1034.1 1028.2 0
10 13.09 СЗ 1-2
{2}
45 км 10/10 540 м
[]
+18.7 +14.0 74 +21 +21 комфорт 1033.9 1028.0
11 13.09 С 1-2
{2}
45 км 10/10 630 м
[]
+19.4 +14.0 71 +22 +22 комфорт 1033.5 1027.6
12 13.09 С 1-3
{3}
19 км 9/9 600 м
[]
+20.6 +14.0 66 +24 +25 комфорт 1033.4 1027.6 0
13 13.09 СВ 1-3
{3}
19 км 8/8 900 м
[]
+21.9 +13.8 60 +25 +27 комфорт 1032.8 1027.0
14 13.09 С 1-4
{5}
40 км н/о +23.7 +13.3 52 +26 +26 жарко 1032.6 1026.8
15 13.09 С 2-4
{5}
45 км 8/8 1000 м
[]
+23.5 +13.9 55 +26 +27 жарко 1032.2 1026.4 0
16 13.09 С 2-3
{4}
55 км 10/10 1260 м
[]
+22.9 +14.2 58 +26 +26 жарко 1032.2 1026.4
17 13.09 С 2-3
{3}
50 км н/о +22.1 +14.7 63 +25 +25 комфорт 1032.1 1026.3
18 13.09 СВ 2
{6}
55 км н/о +21.0 +14.6 67 +25 +25 комфорт 1031.9 1026.1 +15.7 +24.0 0
19 13.09 С 2-2
{3}
50 км н/о +19.9 +14.7 72 +23 +23 комфорт 1032.1 1026.3
20 13.09 С 1-2
{2}
45 км н/о +18.8 +14.7 77 +21 +21 комфорт 1032.7 1026.8
21 13.09 СВ 1-1
{2}
19 км н/о +17.4 +14.1 81 +18 +18 1032.7 1026.8 0
22 13.09 СВ 1-2
{2}
40 км н/о +17.0 +14.5 85 +18 +18 1032.6 1026.7
23 13.09 С 2-3
{3}
35 км н/о +16.2 +14.0 87 +17 +17 1032.6 1026.7
00 14.09 С 2-3
{4}
40 км н/о +16.1 +13.2 83 +16 +16 1032.6 1026.7 0
01 14.09 С 2-3
{4}
35 км н/о +15.5 +12.4 82 +15 +15 1032.1 1026.2
02 14.09 С 2-3
{4}
29 км н/о +15.0 +12.1 83 +15 +15 1031.6 1025.7
03 14.09 С 1-2
{3}
21 км н/о +14.3 +11.8 85 +15 +15 1031.8 1025.8 0
04 14.09 С 1-2
{2}
17 км н/о +13.4 +11.5 88 +14 +14 1031.6 1025.6
05 14.09 С 2-3
{3}
12 км н/о +13.0 +11.4 90 +12 +12 1031.9 1025.9
06 14.09 С 2
{7}
10 км н/о +13.0 +11.4 90 +12 +12 1031.9 1025.9 +12.8 +21.0 0
07 14.09 С 2-3
{3}
12 км н/о +14.2 +11.7 85 +14 +14 1032.1 1026.1
08 14.09 С 2-2
{3}
14 км н/о +15.5 +12.3 81 +16 +16 1031.8 1025.9
09 14.09 С 2-2
{3}
12 км н/о +17.8 +13.1 74 +19 +19 1031.5 1025.6 0
10 14.09 СВ 2-3
{3}
17 км н/о +20.5 +13.9 66 +24 +24 комфорт 1031.2 1025.4
11 14.09 СВ 2-4
{4}
18 км н/о +22.1 +14.0 60 +25 +25 комфорт 1030.4 1024.6
12 14.09 СВ 3-4
{4}
18 км н/о +24.2 +13.1 50 +26 +26 жарко 1029.7 1024.0 0
13 14.09 СВ 3-5
{6}
19 км н/о +25.2 +12.1 44 +27 +27 жарко 1028.9 1023.2
14 14.09 СВ 2-4
{5}
21 км н/о +25.6 +11.7 42 +27 +27 жарко 1028.2 1022.5
15 14.09 СВ 2-3
{4}
22 км н/о +26.1 +11.4 40 +27 +27 жарко 1027.7 1022.0 0
16 14.09 СВ 2-3
{4}
30 км н/о +25.8 +11.2 40 +27 +27 жарко 1027.2 1021.5
17 14.09 СВ 3-4
{4}
40 км н/о +24.8 +11.0 42 +26 +26 жарко 1027.0 1021.3
18 14.09 С 2
{6}
55 км н/о +23.0 +11.7 49 +25 +25 комфорт 1027.2 1021.4 +13.0 +26.2 0
19 14.09 С 2-2
{3}
40 км н/о +21.3 +11.6 54 +23 +23 комфорт 1027.4 1021.6
20 14.09 С 2-2
{3}
45 км н/о +19.8 +11.0 57 +22 +22 комфорт 1027.2 1021.4
21 14.09 СЗ 1-1
{2}
45 км н/о +17.9 +10.8 63 +20 +20 1027.3 1021.4 0
22 14.09 С 1-1
{1}
40 км н/о +17.1 +10.7 66 +18 +18 1027.1 1021.2
23 14.09 СВ 1-1
{2}
40 км н/о +15.6 +10.4 71 +17 +17 1026.9 1021.0
00 15.09 СВ 1-1
{1}
35 км н/о +14.3 +9.9 75 +15 +15 1026.6 1020.7 0
01 15.09 С 1-1
{1}
30 км н/о +13.6 +10.0 79 +15 +15 1026.3 1020.4
02 15.09 С 1-1
{1}
27 км н/о +12.5 +9.1 80 +13 +13 1026.1 1020.1
03 15.09 С 1-1
{1}
24 км н/о +11.7 +9.1 84 +12 +12 1025.7 1019.7 0
04 15.09 штиль 0-1
{1}
25 км н/о +11.4 +9.0 85 +11 +11 1025.4 1019.4
05 15.09 С 1-1
{1}
23 км н/о +11.1 +8.3 83 +12 +12 1025.6 1019.6
06 15.09 штиль 0
{2}
19 км н/о +10.9 +8.1 83 +10 +10 1025.8 1019.8 +10.9 +22.9 0
07 15.09 С 1-1
{1}
19 км н/о +14.0 +9.6 75 +15 +15 1025.6 1019.7
08 15.09 СВ 1-1
{1}
26 км н/о +17.9 +10.3 61 +20 +20 1025.8 1020.0
09 15.09 С 1-2
{2}
40 км н/о +20.6 +11.0 54 +24 +24 комфорт 1025.9 1020.1 0
10 15.09 С 1-3
{3}
40 км н/о +23.5 +10.9 45 +25 +25 комфорт 1025.5 1019.8
11 15.09 С 1-2
{3}
30 км н/о +24.5 +10.4 41 +26 +26 жарко 1025.0 1019.3
12 15.09 СЗ 1-3
{4}
40 км н/о +25.3 +11.1 41 +27 +27 жарко 1024.6 1018.9 0
13 15.09 С 1-3
{3}
50 км н/о +25.9 +10.1 37 +27 +27 жарко 1024.0 1018.3
14 15.09 С 1-2
{3}
30 км н/о +26.6 +8.5 32 +27 +27 жарко 1023.3 1017.6
15 15.09 СЗ 1-3
{3}
50 км н/о +27.2 +9.1 32 +27 +27 жарко 1022.4 1016.7 0
16 15.09 С 1-2
{3}
55 км н/о +26.9 +9.3 33 +27 +27 жарко 1022.1 1016.4
17 15.09 СВ 2-3
{3}
45 км н/о +26.1 +9.4 35 +27 +27 жарко 1021.9 1016.2
18 15.09 С 1
{4}
55 км н/о +24.6 +9.7 39 +25 +25 комфорт 1022.0 1016.3 +10.9 +27.3 0
19 15.09 С 1-1
{2}
25 км н/о +21.4 +10.8 51 +23 +23 комфорт 1022.4 1016.6
20 15.09 С 2-3
{3}
21 км н/о +19.3 +11.1 59 +21 +21 комфорт 1022.6 1016.8
21 15.09 С 1-2
{3}
45 км н/о +19.2 +11.7 62 +21 +21 комфорт 1022.9 1017.1 0
22 15.09 С 1-2
{2}
35 км н/о +17.5 +11.7 69 +19 +19 1023.0 1017.2
23 15.09 штиль 0-1
{3}
30 км н/о +15.6 +11.2 75 +15 +15 1023.0 1017.1
00 16.09 Ю 1-1
{1}
28 км н/о +14.3 +10.7 79 +15 +15 1022.9 1017.0 0
01 16.09 С 1-1
{1}
25 км н/о +13.5 +10.3 81 +14 +14 1022.7 1016.8
02 16.09 СЗ 1-1
{1}
23 км н/о +12.7 +10.1 84 +14 +14 1022.7 1016.8
03 16.09 С 1-1
{1}
26 км н/о +12.2 +9.8 85 +13 +13 1022.0 1016.1 0
04 16.09 С 1-1
{1}
23 км н/о +11.6 +9.3 86 +11 +11 1021.7 1015.7
05 16.09 Ю 1-1
{2}
28 км н/о +11.3 +8.9 85 +12 +12 1021.9 1015.9
06 16.09 ЮВ 1
{2}
22 км н/о +11.5 +9.2 86 +12 +12 1022.0 1016.0 +11.2 +24.5 0
07 16.09 СВ 1 15 км 9/9
[]
+13.5 +10.7 83 +14 +15 1022.3 1016.4
08 16.09 СЗ 1-1
{1}
30 км н/о +15.7 +9.8 68 +17 +17 1022.3 1016.4
09 16.09 З 1-2
{2}
23 км н/о +19.2 +9.4 53 +21 +21 комфорт 1022.4 1016.6 0
10 16.09 ЮЗ 2-3
{3}
45 км н/о +21.7 +7.5 40 +23 +23 комфорт 1022.1 1016.3
11 16.09 СЗ 1-2
{3}
45 км н/о +23.6 +2.4 25 +23 +23 комфорт 1021.8 1016.1
12 16.09 З 1-2
{3}
18 км н/о +25.1 +7.2 32 +25 +25 комфорт 1021.3 1015.6 0
13 16.09 С 1-2
{4}
40 км н/о +26.0 +10.2 37 +27 +27 жарко 1020.8 1015.1
14 16.09 СЗ 1-2
{3}
40 км н/о +26.3 +12.0 41 +28 +28 жарко 1020.1 1014.4
15 16.09 СЗ 2-3
{3}
35 км н/о +26.5 +12.5 42 +28 +28 жарко 1019.8 1014.2 0
16 16.09 СЗ 1-3
{4}
55 км н/о +25.9 +13.4 46 +28 +28 жарко 1019.4 1013.7
17 16.09 СЗ 2-4
{4}
50 км н/о +25.2 +13.7 49 +27 +27 жарко 1019.5 1013.8
18 16.09 С 3
{10}
45 км н/о +22.6 +15.2 63 +26 +26 жарко 1020.0 1014.3 +11.5 +26.8 0
19 16.09 С 2-3
{4}
45 км н/о +20.9 +14.3 66 +24 +24 комфорт 1020.6 1014.8
20 16.09 СЗ 2-3
{4}
35 км 10/10
[]
+19.7 +14.1 70 +22 +22 комфорт 1021.1 1015.3
21 16.09 С 2-3
{3}
28 км н/о +18.3 +14.0 76 +19 +19 1021.5 1015.7 0
22 16.09 СЗ 1-2
{3}
23 км н/о +17.3 +14.2 82 +18 +18 1021.6 1015.8
23 16.09 С 2-4
{4}
22 км н/о +17.3 +14.2 82 +18 +18 1021.6 1015.8
00 17.09 С 2-3
{4}
20 км н/о +16.9 +14.4 85 +17 +17 1021.6 1015.8 0
01 17.09 С 1 16 км н/о +16.4 +14.1 86 +17 +17 1021.4 1015.6
02 17.09 штиль 0 15 км 10/9 540 м
[]
+16.0 +13.8 87 +16 +16 1021.4 1015.5
03 17.09 С 1
{3}
17 км 10/10 300 м
[]
+16.6 +14.2 86 +18 +18 1021.2 1015.4 0
04 17.09 С 1 14 км 10/10 330 м
[]
+16.6 +14.4 87 +17 +17 1021.4 1015.6
05 17.09 С 1 13 км 10/10 570 м
[]
+16.6 +14.4 87 +17 +17 1021.4 1015.6
06 17.09 С 2
{4}
12 км 10/10 300 м
[]
+16.6 +14.4 87 +17 +17 1021.8 1016.0 +15.9 +22.5 0
07 17.09 С 2 10 км 10/1 300 м
[]
+17.1 +14.6 85 +18 +18 1022.1 1016.3
08 17.09 СВ 2 9000 м 10/9 360 м
[]
+17.8 +14.5 81 +19 +19 1022.6 1016.8
09 17.09 С 2
{6}
8000 м 10/10 300 м
[]
+18.1 +13.8 76 +19 +19 1022.9 1017.1 0
10 17.09 СВ 3 19 км 10/10 630 м
[]
+18.7 +12.2 66 +20 +20 1023.1 1017.3
11 17.09 С 2 45 км 9/4 960 м
[]
+19.9 +11.4 58 +22 +25 комфорт 1022.9 1017.1
12 17.09 С 2-4
{4}
50 км 9/9 1000 м
[]
+20.3 +9.8 51 +22 +23 комфорт 1022.5 1016.7 0
13 17.09 С 3-5
{5}
40 км н/о +20.6 +8.9 47 +22 +22 комфорт 1022.3 1016.5
14 17.09 С 2-4
{5}
35 км н/о +21.5 +8.7 44 +23 +23 комфорт 1022.0 1016.2
15 17.09 С 3-5
{5}
19 км н/о +21.7 +8.9 44 +23 +23 комфорт 1021.8 1016.0 0
16 17.09 С 3-4
{5}
40 км н/о +21.3 +7.9 42 +22 +22 комфорт 1021.8 1016.0
17 17.09 С 3-5
{5}
40 км н/о +20.6 +8.2 45 +22 +22 комфорт 1021.9 1016.1
18 17.09 СВ 2
{9}
50 км н/о +19.1 +8.4 50 +20 +20 1022.2 1016.4 +16.6 +21.9 0
19 17.09 С 2-3
{4}
45 км н/о +17.5 +8.4 55 +18 +18 1022.7 1016.9
20 17.09 С 3-4
{4}
30 км н/о +16.4 +8.4 59 +16 +16 1023.5 1017.6
21 17.09 С 3-5
{5}
45 км н/о +15.4 +7.7 60 +15 +15 1024.0 1018.1 0
22 17.09 С 3-5
{6}
45 км н/о +14.5 +7.3 62 +14 +14 1024.4 1018.5
23 17.09 С 3-5
{5}
50 км н/о +13.5 +7.0 65 +12 +12 1024.6 1018.7
00 18.09 С 2-4
{5}
40 км н/о +12.6 +6.4 66 +12 +12 1025.0 1019.0 0
01 18.09 С 2-4
{4}
40 км н/о +11.8 +6.3 69 +11 +11 1025.1 1019.1
02 18.09 С 2-4
{4}
35 км н/о +11.2 +5.9 70 +10 +10 1025.3 1019.3
03 18.09 С 2-3
{4}
40 км н/о +10.5 +5.5 71 +9 +9 1025.6 1019.6 0
04 18.09 С 2-3
{3}
35 км н/о +9.7 +5.3 74 +8 +8 1025.3 1019.3
05 18.09 С 3-4
{4}
35 км н/о +9.5 +5.3 75 +8 +8 1025.7 1019.7
06 18.09 С 2
{8}
29 км н/о +9.7 +5.1 73 +8 +8 1025.9 1019.9 +9.4 +19.1 0
07 18.09 С 3-4
{5}
21 км н/о +10.8 +5.1 68 +9 +9 1026.5 1020.5
08 18.09 СВ 3-5
{5}
19 км н/о +13.2 +5.6 60 +12 +12 1027.0 1021.0
09 18.09 СВ 4-5
{6}
19 км н/о +14.6 +5.1 53 +14 +14 1027.1 1021.2 0
10 18.09 СВ 4-6
{6}
30 км н/о +16.7 +4.7 45 +16 +16 1026.9 1021.0
11 18.09 СВ 4-6
{6}
26 км н/о +17.2 +4.5 43 +17 +17 1026.5 1020.6
12 18.09 СВ 4-6
{6}
25 км н/о +17.7 +4.6 42 +18 +18 1026.4 1020.5 0
13 18.09 С 4-6
{6}
24 км н/о +18.8 +4.2 38 +19 +19 1025.8 1020.0
14 18.09 СВ 4-6
{6}
22 км н/о +19.0 +3.6 36 +19 +19 1025.5 1019.7
15 18.09 С 4-6
{6}
20 км н/о +19.1 +4.1 37 +19 +19 1025.2 1019.4 0
16 18.09 СВ 3-5
{6}
20 км н/о +19.1 +4.1 37 +20 +20 1025.3 1019.5
17 18.09 СВ 3-5
{6}
25 км н/о +18.2 +4.0 39 +18 +18 1025.3 1019.5
18 18.09 СВ 2
{10}
55 км н/о +17.0 +4.3 43 +17 +17 1025.7 1019.8 +9.7 +19.5 0
19 18.09 СВ 1-2
{3}
55 км н/о +15.0 +4.1 48 +16 +16 1026.2 1020.3
20 18.09 С 2-3
{3}
55 км н/о +14.8 +4.2 49 +15 +15 1026.6 1020.7
21 18.09 С 2-4
{4}
55 км н/о +14.1 +4.7 53 +14 +14 1027.2 1021.3 0
22 18.09 С 2-4
{5}
45 км н/о +13.4 +5.0 57 +13 +13 1027.5 1021.5
23 18.09 С 2-4
{4}
45 км н/о +12.8 +5.9 63 +12 +12 1027.9 1021.9
00 19.09 С 3-4
{4}
45 км н/о +12.3 +6.3 67 +11 +11 1028.1 1022.1 0
01 19.09 С 3-4
{4}
45 км н/о +11.7 +6.4 70 +10 +10 1027.9 1021.9
02 19.09 С 2-4
{4}
45 км н/о +11.1 +6.2 72 +10 +10 1027.8 1021.8
03 19.09 С 3-5
{5}
45 км н/о +10.5 +6.1 74 +9 +9 1027.8 1021.8 0
04 19.09 С 2-3
{4}
45 км н/о +10.1 +6.1 76 +9 +9 1027.9 1021.9
05 19.09 С 1-3
{4}
50 км н/о +9.5 +5.9 78 +9 +9 1028.2 1022.2
06 19.09 С 2
{6}
40 км н/о +9.4 +5.9 79 +8 +8 1028.5 1022.5 +9.3 +17.0 0
07 19.09 С 3-4
{4}
35 км н/о +10.8 +6.3 74 +9 +9 1028.9 1022.9
08 19.09 СВ 4-5
{5}
35 км н/о +13.3 +6.2 62 +12 +12 1029.4 1023.4
09 19.09 СВ 4-5
{6}
45 км н/о +15.1 +6.6 57 +14 +14 1029.5 1023.6 0
10 19.09 СВ 4-5
{6}
27 км н/о +16.4 +6.2 51 +16 +16 1029.4 1023.5
11 19.09 СВ 4-6
{7}
25 км н/о +17.6 +5.5 45 +17 +17 1029.1 1023.2
12 19.09 СВ 3-6
{6}
23 км н/о +18.6 +5.1 41 +19 +19 1028.7 1022.8 0
13 19.09 СВ 4-6
{6}
19 км н/о +19.0 +4.7 39 +19 +19 1028.0 1022.2
14 19.09 СВ 4-6
{7}
21 км н/о +19.5 +3.2 34 +20 +20 1027.5 1021.7
15 19.09 СВ 4-6
{6}
21 км н/о +19.7 +2.5 32 +20 +20 1027.1 1021.3 0
16 19.09 СВ 4-6
{6}
23 км н/о +19.2 +1.6 31 +19 +19 1027.0 1021.2
17 19.09 СВ 3-5
{6}
25 км н/о +18.6 +2.8 35 +19 +19 1027.1 1021.2
18 19.09 СВ 2
{10}
60 км н/о +17.1 +3.0 39 +17 +17 1027.2 1021.3 +9.4 +19.9 0
19 19.09 С 2-3
{3}
60 км н/о +15.8 +4.8 48 +16 +16 1027.6 1021.7
20 19.09 С 2-4
{4}
60 км н/о +14.8 +5.0 52 +15 +15 1027.8 1021.9
21 19.09 С 3-4
{4}
60 км н/о +14.3 +5.1 54 +14 +14 1028.0 1022.1 0
22 19.09 СВ 2-3
{4}
60 км н/о +13.2 +4.6 56 +13 +13 1028.0 1022.0
23 19.09 СВ 2-3
{4}
60 км н/о +12.2 +4.2 58 +12 +12 1027.8 1021.8
00 20.09 СВ 2-2
{3}
60 км н/о +11.5 +4.0 60 +11 +11 1027.7 1021.7 0

 

Местоположение метеостанции Ле-Бурже (Франция): широта 48.97 долгота 2.43 высота над уровнем моря 52 м.

В архиве по умолчанию представлена погода в Ле-Бурже за последнюю неделю. Архивные данные за месяц целиком и за предыдущие месяцы, начиная с января 2011 года, Вы можете получить, выбрав интересующий диапазон дат из раскрывающегося списка и нажав кнопку "Ввод!".


*Определитесь, кто Вы:
робот инопланетянин человек

Внимание! Время в таблицах - всемирное. Для получения местного времени необходимо прибавить поправку, которая равна 1 ч.

Смотрите также архив погоды в соседних городах и на ближайших метеорологических станциях:

Погода в Аэропорту Шарль де Голль (Франция) (9 км)
Погода в Париже (Франция) (18 км)
Погода в Велизи-Вилакубле (Франция) (28 км)
Погода в Париж Орли аэропорту (Франция) (28 км)
Погода в Кормее (Франция) (32 км)
Погода в Крее (Франция) (32 км)
Погода в Трапе (Франция) (39 км)
Погода в Мелене (Франция) (43 км)
Погода в Бове (Франция) (60 км)
Погода в Эврё (Франция) (88 км)

Пояснения к столбцам:

Ветер - указаны скорость ветра в м/с - средняя за 10 мин, порывы в срок и между сроками (в фигурных скобках) и направление, откуда дует ветер: С - северный, СВ - северо-восточный, В - восточный, ЮВ - юго-восточный, Ю - южный, ЮЗ - юго-западный, З - западный, СЗ - северо-западный.
Видимость - горизонтальная дальность видимости в метрах или километрах. При видимости от 1 до 10 км при отсутствии осадков обычно наблюдается дымка, при ухудшении видимости до 1 км и менее - туман. В сухую погоду видимость может ухудшаться дымом, пылью или мглою.
Явления - указаны атмосферные явления, наблюдавшиеся в срок или в последний час перед сроком; фигурными скобками обозначены явления, наблюдавшиеся между сроками (за 1-3 часа до срока); квадратными скобками обозначены град или гололедные отложения с указанием их диаметра в мм.
Облачность - указаны через наклонную черту общая и нижняя облачность в баллах и высота нижней границы облаков в метрах; квадратными скобками обозначены формы облаков: Ci - перистые, Cs - перисто-слоистые, Cc - перисто-кучевые, Ac - высококучевые, As - высокослоистые, Sc - слоисто-кучевые, Ns - слоисто-дождевые, Cu - кучевые, Cb - кучево-дождевые. Подробнее классификацию облаков см. в Атласе облаков (PDF).
T - Температура воздуха - температура, измеренная на высоте 2 м над землей.
Td - Температура точки росы - температура, при понижении до которой содержащийся в воздухе водяной пар достигнет насыщения.
f - Относительная влажность воздуха - влажноcть воздуха, измеренная на высоте 2 м над землей.
Te - Эффективная температура - температура, которую ощущает одетый по сезону человек в тени. Характеристика душности погоды. При расчете учитывается влияние влажности воздуха и скорости ветра на теплоощущения человека.
Tes - Эффективная температура на солнце - температура, которую ощущает человек, с поправкой на солнечный нагрев. Характеристика знойности погоды. Зависит от высоты солнца над горизонтом, облачности и скорости ветра. Ночью, в пасмурную погоду, а также при ветре 12 м/с и более поправка равна нулю.
P - Атмосферное давление - приведенное к уровню моря атмосферное давление.
Po - Атмосферное давление - измеренное на уровне метеостанции атмосферное давление.
Tmin - Минимальная температура - минимум температуры воздуха на высоте 2 м над землей.
Tmax - Максимальная температура - максимум температуры воздуха на высоте 2 м над землей.
R - Количество осадков - Количество выпавших осадков за период времени, мм. При наведении курсора мыши на число - период времени, за который выпало указанное количество осадков.
R24 - Количество осадков - Количество выпавших осадков за 24 часа, мм.
S - Снежный покров - Высота снежного покрова, см. При наведении курсора мыши на число - состояние снежного покрова и степень покрытия местности в баллах.